Location: Castle Hill Houses
(40.8186°N, 73.8497°W)
Time: 10:36:58
(UTC+00:00)

Meteor 1-21 Rocket - Pass Details

Date: 26 January 2020
Orbit: 834 x 907 km, 81.2° (Epoch: 18 February)

Event Time Altitude Azimuth Distance (km) Brightness Sun altitude
Exits shadow 09:31:19 53° 14° (NNE) 1,105 4.7 -30.2°
Maximum altitude 09:32:42 73° 80° (E) 948 4.4 -30.0°
Drops below altitude 10° 09:38:35 10° 165° (SSE) 2,580 6.9 -28.9°
Sets 09:41:03 0° 167° (SSE) 3,515 7.6 -28.4°
